This is the latest recevied weather packets stored in our database for station/object KC4GS-13. If no packets are shown the sender has not sent any weather packets the latest 10 day(s).
| Time | Temp. | Humidity | Pressure | Rain* | Wind** | Luminosity | Snow |
|---|---|---|---|---|---|---|---|
| 1787446088 | 28.33° C | 81% | 1015.4 hPa | 0 mm | - | 0 W/m² | - |
| 1787445784 | 28.33° C | 80% | 1015.1 hPa | 0 mm | - | 0 W/m² | - |
| 1787445480 | 28.89° C | 80% | 1015.1 hPa | 0 mm | - | 0 W/m² | - |
| 1787445174 | 28.89° C | 79% | 1015 hPa | 0 mm | - | 0 W/m² | - |
| 1787444869 | 29.44° C | 78% | 1014.8 hPa | 0 mm | - | 0 W/m² | - |
| 1787444566 | 29.44° C | 77% | 1014.7 hPa | 0 mm | - | 0 W/m² | - |
| 1787444262 | 29.44° C | 77% | 1014.7 hPa | 0 mm | - | 0 W/m² | - |
| 1787443962 | 30° C | 76% | 1014.5 hPa | 0 mm | - | 0 W/m² | - |
| 1787443661 | 30° C | 74% | 1014.6 hPa | 0 mm | - | 1 W/m² | - |
| 1787443356 | 30.56° C | 73% | 1014.7 hPa | 0 mm | - | 2 W/m² | - |
| 1787443054 | 30.56° C | 72% | 1014.6 hPa | 0 mm | - | 6 W/m² | - |
| 1787442751 | 30.56° C | 71% | 1014.5 hPa | 0 mm | - | 9 W/m² | - |
| 1787442447 | 31.11° C | 71% | 1014.4 hPa | 0 mm | - | 12 W/m² | - |
| 1787442142 | 31.11° C | 69% | 1014.4 hPa | 0 mm | - | 17 W/m² | - |
| 1787441838 | 31.67° C | 68% | 1014.4 hPa | 0 mm | - | 24 W/m² | - |
| 1787441538 | 31.67° C | 68% | 1014.4 hPa | 0 mm | - | 29 W/m² | - |
| 1787441233 | 31.67° C | 67% | 1014.3 hPa | 0 mm | - | 36 W/m² | - |
| 1787440928 | 31.67° C | 67% | 1014.3 hPa | 0 mm | - | 40 W/m² | - |
| 1787440623 | 32.78° C | 65% | 1014.1 hPa | 0 mm | - | 46 W/m² | - |
| 1787440319 | 32.78° C | 62% | 1014.3 hPa | 0 mm | - | 51 W/m² | - |
| 1787440016 | 32.78° C | 54% | 1014.1 hPa | 0 mm | - | 55 W/m² | - |
| 1787439711 | 32.78° C | 55% | 1014.3 hPa | 0 mm | - | 68 W/m² | - |
| 1787439406 | 33.33° C | 54% | 1014.4 hPa | 0 mm | - | 76 W/m² | - |
| 1787439103 | 32.78° C | 54% | 1014.3 hPa | 0 mm | - | 77 W/m² | - |
| 1787438798 | 32.78° C | 52% | 1014.4 hPa | 0 mm | - | 69 W/m² | - |
* Rain latest hour (hover to see other rain measurements)
** Current wind speed in m/s (hover to see current wind gust speed)